This is the latest recevied weather packets stored in our database for station/object KD7CTY. If no packets are shown the sender has not sent any weather packets the latest 10 day(s).
| Time | Temp. | Humidity | Pressure | Rain* | Wind** | Luminosity | Snow |
|---|---|---|---|---|---|---|---|
| 1788587896 | 12.78° C | 90% | 1015.1 hPa | 0 mm | - | 0 W/m² | - |
| 1788587591 | 12.78° C | 91% | 1015 hPa | 0 mm | - | 0 W/m² | - |
| 1788587285 | 12.78° C | 90% | 1015 hPa | 0 mm | - | 0 W/m² | - |
| 1788586982 | 13.33° C | 90% | 1015.1 hPa | 0 mm | - | 0 W/m² | - |
| 1788586681 | 13.33° C | 90% | 1015 hPa | 0 mm | - | 0 W/m² | - |
| 1788586376 | 12.78° C | 90% | 1014.9 hPa | 0 mm | - | 0 W/m² | - |
| 1788586076 | 13.33° C | 90% | 1014.8 hPa | 0 mm | - | 0 W/m² | - |
| 1788585770 | 13.33° C | 89% | 1015.2 hPa | 0 mm | - | 0 W/m² | - |
| 1788585470 | 13.89° C | 88% | 1014.8 hPa | 0 mm | - | 0 W/m² | - |
| 1788585167 | 13.89° C | 87% | 1015 hPa | 0 mm | - | 0 W/m² | - |
| 1788584863 | 13.33° C | 88% | 1015 hPa | 0 mm | - | 0 W/m² | - |
| 1788584560 | 13.89° C | 88% | 1015 hPa | 0 mm | - | 0 W/m² | - |
| 1788584259 | 13.89° C | 86% | 1015.1 hPa | 0 mm | - | 0 W/m² | - |
| 1788583955 | 14.44° C | 85% | 1014.8 hPa | 0 mm | - | 0 W/m² | - |
| 1788583650 | 15° C | 82% | 1014.9 hPa | 0 mm | - | 0 W/m² | - |
| 1788583345 | 15° C | 82% | 1015 hPa | 0 mm | - | 0 W/m² | - |
| 1788583044 | 15° C | 82% | 1014.8 hPa | 0 mm | - | 0 W/m² | - |
| 1788582738 | 15° C | 82% | 1014.9 hPa | 0 mm | - | 0 W/m² | - |
| 1788582433 | 14.44° C | 82% | 1014.7 hPa | 0 mm | - | 0 W/m² | - |
| 1788582132 | 14.44° C | 83% | 1014.8 hPa | 0 mm | - | 0 W/m² | - |
| 1788581828 | 13.89° C | 82% | 1015 hPa | 0 mm | - | 0 W/m² | - |
| 1788581523 | 14.44° C | 83% | 1015.1 hPa | 0 mm | - | 0 W/m² | - |
| 1788581218 | 14.44° C | 81% | 1014.8 hPa | 0 mm | - | 0 W/m² | - |
| 1788580917 | 15° C | 79% | 1015 hPa | 0 mm | - | 0 W/m² | - |
| 1788580617 | 15° C | 78% | 1015 hPa | 0 mm | - | 0 W/m² | - |
* Rain latest hour (hover to see other rain measurements)
** Current wind speed in m/s (hover to see current wind gust speed)